Regional Weather Roundup
Issued by NWS

Home | Current Version | Previous Version | Text Only | Print | Product List | Glossary Off
Versions: 1 2 3 4 5 6 7 8 9 10 11 12 13 14 15 16 17 18 19 20 21 22 23 24 25 26 27 28 29 30 31 32 33 34 35 36 37 38 39 40 41 42 43 44 45 46 47 48 49 50

066
ASUS44 KLIX 192305
RWRLA
LOUISIANA WEATHER ROUNDUP
NATIONAL WEATHER SERVICE NEW ORLEANS LA
500 PM CST FRI DEC 19 2014

NOTE: "FAIR" INDICATES FEW OR NO CLOUDS BELOW 12,000 FEET WITH NO
      SIGNIFICANT WEATHER AND/OR OBSTRUCTIONS TO VISIBILITY.
      SKY/WX - SKY CONDITION AND SIGNIFICANT WEATHER.
      TMP - AIR TEMPERATURE.    DP   - DEWPOINT TEMPERATURE.
      RH  - RELATIVE HUMIDITY.  PRES - PRESSURE.
      HX  - HEAT INDEX.         WCI  - WIND CHILL INDEX.

*  THESE STATIONS ARE NOT NWS OR FAA STATIONS AND ARE NOT UNDER
   NWS QUALITY CONTROL.

LAZ040-048-061>063-065-066-069-200000-
SOUTHEAST LOUISIANA

CITY           SKY/WX    TMP DP  RH WIND       PRES   REMARKS
N.O. AUDUBON     N/A     52  52 100 MISG        N/A
N.O. INTL ARPT LGT RAIN  52  49  89 NE15      30.06R
N.O. LAKEFRONT CLOUDY    53  50  89 NE21      30.06R
N.O. DOWNTOWN* CLOUDY    52  46  82 N6        30.06R
SLIDELL        LGT RAIN  49  46  90 N9        30.07S
BATON ROUGE    RAIN      47  45  93 NE12      30.07F FOG
BOOTHVILLE     CLOUDY    59  58  96 N6        30.03S FOG
BELLE CHASSE   CLOUDY    53  51  93 NE10      30.05R
BOGALUSA*      RAIN      48  45  88 NE7       30.11F
GALLIANO*      CLOUDY    56  55  97 MISG      30.04R
NEW ROADS*     LGT RAIN  48  47  96 NE8       30.09R
GONZALES*      RAIN      49  49 100 N6        30.06S
HAMMOND*       NOT AVBL
HOUMA*         CLOUDY    55  54  94 NE10      30.03S
PORT FOURCHON* CLOUDY    61  59  94 NE9       30.04F

$$

LAZ041-044-053-054-200000-
SOUTHWEST LOUISIANA

CITY           SKY/WX    TMP DP  RH WIND       PRES   REMARKS
LAKE CHARLES   RAIN      56  54  93 NE16      30.04R FOG
LAFAYETTE      LGT RAIN  53  52  96 NE12      30.05R
PATTERSON      CLOUDY    55  54  94 NE13      30.03S
SALT POINT       N/A     59  55  87 VRB7      30.00S
NEW IBERIA     HVY RAIN  55  53  93 NE14      30.05R FOG
CHENAULT AIRPK LGT RAIN  55  54  94 NE9       30.05R

$$

LAZ027-028-200000-
CENTRAL LOUISIANA

CITY           SKY/WX    TMP DP  RH WIND       PRES   REMARKS
FORT POLK      CLOUDY    50  48  93 NE8       30.06R
ALEXANDRIA INT LGT RAIN  48  47  96 NE9       30.08R
ALEXANDRIA     LGT RAIN  49  46  90 NE6       30.09S

$$

LAZ001-002-200000-
NORTHWEST LOUISIANA

CITY           SKY/WX    TMP DP  RH WIND       PRES   REMARKS
SHREVEPORT     CLOUDY    48  45  89 NE12      30.13R
BARKSDALE AFB  NOT AVBL
DTN SHREVEPORT CLOUDY    47  43  86 NE7       30.15R

$$

LAZ014-016-200000-
NORTHEAST LOUISIANA

CITY           SKY/WX    TMP DP  RH WIND       PRES   REMARKS
MONROE         CLOUDY    47  45  93 NE6       30.14R
TALLULAH       LGT RAIN  46  44  93 NE6       30.15F

$$




USA.gov is the U.S. government's official web portal to all federal, state and local government web resources and services.